This is the latest recevied weather packets stored in our database for station/object SR5NLK-1. If no packets are shown the sender has not sent any weather packets the latest 10 day(s).
| Time | Temp. | Humidity | Pressure | Rain* | Wind** | Luminosity | Snow |
|---|---|---|---|---|---|---|---|
| 1777623309 | 22.22° C | 29% | 1009 hPa | 0 mm | - | - | - |
| 1777623009 | 22.78° C | 29% | 1005.8 hPa | 0 mm | - | - | - |
| 1777622948 | 22.78° C | 29% | 1003.8 hPa | 0 mm | - | - | - |
| 1777622709 | 22.78° C | 28% | 999.5 hPa | 0 mm | - | - | - |
| 1777622409 | 22.22° C | 28% | 1007.9 hPa | 0 mm | - | - | - |
| 1777622109 | 22.78° C | 27% | 989.1 hPa | 0 mm | - | - | - |
| 1777621809 | 23.33° C | 26% | 991.1 hPa | 0 mm | - | - | - |
| 1777621509 | 23.89° C | 26% | 989 hPa | 0 mm | - | - | - |
| 1777621209 | 23.89° C | 25% | 993.1 hPa | 0 mm | - | - | - |
| 1777620968 | 25° C | 24% | 993.4 hPa | 0 mm | - | - | - |
| 1777620909 | 25.56° C | 24% | 993.6 hPa | 0 mm | - | - | - |
| 1777620609 | 25.56° C | 24% | 993.6 hPa | 0 mm | - | - | - |
| 1777620309 | 26.11° C | 23% | 997.2 hPa | 0 mm | - | - | - |
| 1777620009 | 26.67° C | 23% | 1000 hPa | 0 mm | - | - | - |
| 1777619709 | 27.78° C | 23% | 999.5 hPa | 0 mm | - | - | - |
| 1777619409 | 28.33° C | 22% | 1021.7 hPa | 0 mm | - | - | - |
| 1777619109 | 28.89° C | 22% | 1021.6 hPa | 0 mm | - | - | - |
| 1777618988 | 28.89° C | 22% | 1012.2 hPa | 0 mm | - | - | - |
| 1777618809 | 29.44° C | 23% | 1031.2 hPa | 0 mm | - | - | - |
| 1777618509 | 29.44° C | 22% | 996.2 hPa | 0 mm | - | - | - |
| 1777618209 | 30° C | 22% | 1040.6 hPa | 0 mm | - | - | - |
| 1777617909 | 30° C | 23% | 1012.2 hPa | 0 mm | - | - | - |
| 1777617609 | 29.44° C | 25% | 1024.8 hPa | 0 mm | - | - | - |
| 1777617309 | 28.89° C | 25% | 1021.7 hPa | 0 mm | - | - | - |
| 1777617008 | 28.33° C | 25% | 1028 hPa | 0 mm | - | - | - |
* Rain latest hour (hover to see other rain measurements)
** Current wind speed in m/s (hover to see current wind gust speed)